Theta_e
321 322 319 318 317 316 315 317 316 319 319 319 320 321 324 326 327 328 331 340 339 340 342 343 343 342 342 341 341 341 341 341 341 341 340 341 342 342 343 343 344 344 345
320 321 316 316 315 316 318 318 318 316 317 318 319 321 325 325 326 327 328 329 336 337 338 339 341 343 341 340 339 338 337 337 339 339 340 340 339 340 340 340 340 340 339
319 317 314 313 313 315 317 316 317 317 316 316 316 318 321 323 325 326 325 325 326 333 334 335 335 336 335 334 333 333 333 330 333 337 337 336 337 338 339 339 338 338 338
320 314 313 311 316 316 315 315 315 314 315 316 313 315 319 319 321 322 324 324 323 324 329 331 332 332 332 331 331 329 327 326 329 328 328 329 330 330 331 332 333 333 334
320 313 312 313 313 313 313 313 314 312 312 312 316 313 314 316 320 321 319 320 321 320 320 328 328 328 329 330 330 329 327 324 324 323 324 324 325 325 325 326 327 327 328
318 316 312 314 312 311 310 310 310 311 310 309 314 314 313 315 316 316 317 319 323 319 317 318 317 321 325 325 326 327 326 325 323 322 321 320 320 321 322 321 321 321 322
315 313 310 311 312 309 309 310 310 306 310 307 305 305 313 317 318 315 313 313 313 319 317 319 319 317 319 325 325 325 325 325 323 323 322 321 320 319 318 318 319 319 319
314 313 313 311 311 309 308 308 307 307 305 307 301 301 301 309 304 313 315 312 310 311 312 315 317 319 318 315 318 321 320 319 319 319 318 318 318 319 318 316 316 317 317
315 313 312 311 308 308 308 307 307 305 301 302 302 298 297 294 298 307 312 310 310 309 309 311 311 311 315 313 311 312 314 314 314 314 313 314 315 315 317 318 316 315 316
313 314 313 311 308 307 307 307 308 305 301 300 299 303 301 298 293 293 299 304 309 308 303 301 304 309 308 306 312 313 312 312 311 311 312 311 311 312 314 315 318 317 316
312 314 312 312 310 310 306 308 306 303 303 302 301 300 298 298 297 295 293 296 298 300 301 299 301 303 307 304 303 308 312 311 311 309 309 309 309 310 311 312 314 315 315
308 311 313 310 309 308 308 307 306 303 303 303 302 301 299 296 296 295 293 293 294 298 299 300 302 304 306 306 309 311 314 312 311 309 309 308 308 308 309 311 311 313 314
308 308 309 308 308 308 307 308 307 303 303 302 302 302 302 300 298 297 295 294 294 296 299 306 306 306 307 305 305 310 313 313 312 311 311 311 309 308 309 310 310 311 311
309 310 309 309 307 307 308 309 306 304 305 302 302 303 302 301 301 301 303 296 294 294 295 297 301 302 302 303 307 314 308 313 313 314 314 315 310 309 309 309 309 309 310
312 310 310 307 306 304 308 308 305 303 303 303 304 304 302 302 303 302 302 300 297 292 293 297 298 302 304 304 306 304 303 312 314 314 311 312 311 309 308 307 307 307 307
310 310 308 307 305 303 305 308 305 303 303 303 307 303 302 302 302 302 301 300 298 296 294 297 300 301 304 307 308 306 305 313 314 314 310 311 310 309 307 306 305 305 305
309 309 308 306 306 302 304 306 306 306 304 304 303 304 305 303 303 303 303 301 301 298 295 298 300 302 301 303 305 303 305 304 303 312 312 311 310 310 308 306 305 305 305
310 310 310 307 307 305 305 306 306 310 304 303 304 304 304 309 304 305 302 302 301 301 298 296 297 299 299 301 305 303 305 307 302 308 312 312 310 308 307 307 306 305 306
309 310 308 306 306 305 306 306 307 306 305 305 305 304 306 306 304 304 305 305 304 302 300 296 296 297 297 301 300 299 300 300 304 310 310 308 307 306 307 307 307 307 305
309 309 308 307 308 305 306 307 307 305 304 306 308 308 308 307 305 306 306 305 302 299 298 295 295 295 295 297 297 296 295 296 297 302 303 305 306 307 308 307 307 307 305
312 313 311 308 307 306 307 305 305 305 303 302 304 307 308 312 316 313 309 304 299 298 296 295 294 293 293 294 293 294 293 293 294 295 295 295 296 296 297 304 305 306 305
311 310 311 311 309 308 304 307 305 302 303 302 302 305 309 312 310 311 311 309 306 298 295 293 293 292 293 294 294 293 291 290 288 294 294 293 295 294 296 297 304 304 304
309 307 308 309 308 308 304 305 306 302 303 303 305 306 309 311 305 299 302 304 302 305 304 296 294 294 293 294 293 291 291 290 290 294 294 291 293 293 295 299 302 303 304
309 308 309 307 305 307 306 304 305 302 304 306 308 308 305 295 296 296 296 295 296 297 298 300 299 297 296 297 296 295 293 293 294 295 298 293 292 293 294 296 301 302 303
309 309 309 307 309 307 306 303 304 305 307 305 299 304 298 295 298 298 296 295 295 297 302 302 302 301 300 300 299 294 293 296 290 294 297 293 296 295 293 293 295 303 302
309 311 309 308 308 306 302 303 306 305 301 299 296 296 301 295 297 297 293 293 293 293 293 295 297 300 301 301 303 296 298 293 293 295 297 294 294 295 290 293 294 295 295
Wind_Speed
3 3 3 4 4 4 4 5 5 5 5 6 6 6 8 10 11 7 6 23 22 21 19 19 18 12 9 8 4 3 7 10 10 10 11 11 12 12 13 14 13 11 9
3 4 4 5 5 5 5 4 4 4 3 5 5 6 7 8 10 10 7 10 27 26 24 26 27 23 28 25 21 10 4 2 9 12 13 14 14 14 14 14 12 11 10
6 5 5 5 5 5 6 6 6 5 5 4 5 5 5 6 7 7 7 7 7 21 26 25 25 25 28 28 29 29 26 26 27 7 20 21 20 19 18 17 16 13 12
7 5 5 5 5 5 6 5 5 4 4 4 3 4 4 5 6 6 5 5 6 6 13 20 21 22 22 23 24 27 25 22 23 23 27 23 21 18 18 17 16 14 14
7 5 5 4 5 5 5 5 4 3 3 4 4 3 4 4 4 4 7 6 6 6 5 17 19 19 20 22 23 23 24 17 24 19 18 20 22 21 15 14 13 11 12
7 5 5 6 5 5 5 5 4 4 1 2 3 4 0 3 4 4 4 5 6 6 5 6 5 8 17 17 18 20 18 19 14 13 14 14 14 10 17 12 11 10 10
7 7 4 5 4 5 4 5 4 5 4 5 4 5 1 3 5 3 4 4 5 6 5 4 4 2 4 16 17 17 17 17 13 16 16 13 14 8 7 6 7 8 7
6 6 6 5 6 5 7 6 6 4 3 5 2 2 5 3 3 1 2 3 4 4 5 5 5 5 5 4 11 16 16 15 15 15 13 13 12 10 6 4 4 4 4
7 6 6 6 6 6 4 5 6 6 4 4 7 4 3 1 3 4 2 2 4 1 1 3 4 6 6 5 6 8 11 13 13 12 12 12 11 10 10 9 4 4 5
6 6 5 6 5 4 5 3 4 4 4 5 4 4 5 3 2 4 4 4 3 1 3 2 6 6 8 5 8 8 9 8 6 6 9 10 10 10 10 11 11 9 7
6 6 5 5 5 4 4 6 5 7 3 3 3 3 4 3 4 4 2 5 4 3 3 2 4 5 5 5 4 4 6 6 6 4 2 6 7 9 9 10 11 11 12
4 4 6 4 4 6 3 4 4 7 5 4 3 4 2 2 2 3 2 3 1 5 2 4 3 3 3 3 7 4 4 5 6 4 2 1 0 4 7 8 10 12 13
2 5 5 4 2 3 4 4 5 4 3 3 3 2 3 3 1 2 2 3 2 3 3 2 3 2 2 3 2 2 5 10 8 6 6 7 5 1 4 6 8 10 11
5 6 6 5 3 4 4 5 4 3 4 1 3 4 2 3 2 1 1 2 4 3 2 2 2 3 3 2 5 2 6 10 9 8 5 8 7 5 6 8 11 13 16
5 7 6 6 4 2 5 6 4 3 3 3 4 1 1 2 3 3 2 2 4 2 4 4 2 4 3 4 6 2 4 8 7 2 6 6 8 7 6 9 12 14 16
6 6 6 6 4 2 1 5 4 3 3 2 3 2 2 2 2 2 2 2 1 4 3 3 4 5 6 6 8 6 5 7 8 9 9 9 9 10 10 8 10 13 14
7 6 6 6 5 4 3 4 4 5 4 4 2 2 5 4 3 2 2 2 3 1 3 5 3 5 5 8 8 3 4 3 3 4 8 11 12 11 9 9 10 12 13
3 6 5 5 5 5 4 3 4 3 3 2 3 3 5 2 2 4 1 3 3 3 3 5 3 4 4 5 1 3 4 3 4 7 10 10 6 8 9 11 10 12 13
5 4 6 4 3 6 5 4 3 2 2 3 4 5 6 4 4 4 5 4 3 2 3 2 4 2 3 2 4 3 3 4 4 11 7 3 5 6 9 10 11 12 11
7 5 5 6 5 6 6 6 6 6 4 4 4 4 6 5 6 6 6 6 4 3 3 3 3 3 1 3 1 1 4 2 4 4 5 5 8 9 10 14 13 12 10
7 6 6 5 5 5 4 6 5 4 3 5 6 6 6 7 14 8 3 4 3 2 3 3 4 2 2 3 1 2 2 3 4 2 2 3 3 4 6 9 10 11 11
6 5 6 6 6 4 8 5 6 3 4 5 6 7 7 7 3 4 4 6 4 3 4 3 2 2 3 3 2 2 2 2 3 2 3 4 2 4 5 4 9 10 11
5 3 2 4 4 5 10 8 7 4 5 6 7 7 8 2 6 5 6 7 7 10 8 3 2 3 3 3 2 2 2 2 4 4 2 4 2 4 4 4 10 12 13
6 4 4 2 1 2 10 10 8 3 4 7 7 7 5 6 3 4 5 6 6 7 5 5 4 4 3 4 3 3 3 4 4 4 3 4 3 5 4 6 11 13 11
4 4 3 4 3 5 3 4 4 2 5 5 4 7 7 6 3 3 4 5 7 6 7 10 10 9 8 8 7 1 4 3 4 3 1 2 3 4 4 4 5 6 10
5 4 4 5 7 5 6 9 5 2 1 2 1 4 7 7 7 4 3 2 5 6 6 7 7 6 7 6 9 6 4 4 4 4 3 3 2 2 4 3 2 4 4
Wind_Direction
24 9 42 42 33 356 1 350 349 357 23 31 37 30 40 36 32 29 33 50 45 42 38 36 31 21 28 9 24 171 162 147 143 130 118 106 98 93 90 88 87 84 81
31 41 45 34 10 0 340 2 360 9 43 45 31 34 49 48 46 48 45 33 51 49 56 53 50 62 57 50 38 16 6 178 150 134 115 100 92 90 90 88 87 89 85
49 79 57 29 347 347 15 14 6 24 13 27 33 39 51 65 62 59 54 44 35 49 55 64 66 66 64 64 56 46 42 43 38 123 94 87 76 76 78 79 73 74 74
62 64 62 22 5 25 31 16 359 356 28 13 20 30 52 68 76 81 73 67 59 41 49 59 62 67 72 75 81 69 57 34 45 50 43 42 57 60 61 61 61 64 68
63 89 69 36 48 37 27 11 348 0 26 8 1 13 59 63 91 83 93 85 66 62 37 59 57 58 62 72 77 90 87 77 48 40 45 46 46 36 52 58 57 60 68
67 77 65 58 50 46 24 8 357 348 350 4 2 339 79 97 90 71 66 87 111 91 82 76 57 63 70 72 73 75 73 82 92 105 102 87 74 18 39 47 47 52 50
69 62 68 66 78 61 38 18 335 2 349 356 20 352 305 87 71 71 85 79 99 124 127 124 113 82 49 68 74 67 61 61 47 41 31 32 56 63 59 62 37 37 36
84 73 66 54 86 57 38 26 29 2 343 5 48 48 16 349 23 320 64 93 97 94 110 127 153 128 81 70 71 59 53 47 36 32 21 18 21 3 359 30 21 17 5
99 87 74 74 78 69 62 41 30 40 12 325 37 122 49 342 335 334 345 61 111 100 97 105 93 99 113 96 81 72 69 53 41 29 20 13 6 357 347 334 295 298 311
116 108 91 83 95 85 67 53 43 50 55 20 347 13 63 128 71 352 341 350 334 66 136 94 98 117 132 144 138 110 99 100 91 49 25 11 2 355 350 347 336 331 303
148 136 127 86 109 105 87 93 56 43 49 55 30 336 13 27 79 94 348 326 355 345 278 154 138 125 142 139 140 133 130 149 141 123 34 15 16 360 355 348 341 332 323
141 132 121 118 97 110 119 98 95 71 52 45 32 33 52 72 1 52 45 302 314 316 341 331 27 65 121 170 188 174 162 175 174 216 250 286 57 13 356 349 343 335 328
151 136 128 106 114 160 129 111 117 102 73 55 30 14 30 1 27 53 65 320 356 316 347 51 34 127 112 163 228 210 116 173 203 237 260 270 244 202 321 321 320 313 312
156 156 153 138 125 94 137 118 119 148 140 67 14 26 6 358 57 80 60 108 347 333 321 284 305 354 326 254 242 239 187 189 206 237 253 257 218 232 269 289 303 303 297
154 162 145 137 128 67 141 143 136 150 162 171 237 309 3 327 17 22 33 109 139 317 300 310 344 271 263 276 264 233 206 220 240 191 191 183 219 238 263 286 302 309 306
150 143 137 139 150 168 185 124 154 200 185 215 172 219 276 271 319 349 335 327 168 173 249 225 276 274 287 283 265 248 222 245 255 275 209 210 214 229 247 268 294 305 302
135 148 157 163 172 177 146 127 170 225 219 223 279 244 264 257 265 299 315 336 314 235 237 294 252 279 292 283 282 307 275 260 282 259 219 214 222 231 239 258 287 285 288
154 177 180 170 170 149 157 178 225 310 185 307 283 282 285 290 228 247 243 276 270 277 201 281 271 296 301 329 358 9 352 343 305 274 285 279 279 237 238 255 279 276 278
193 212 157 155 175 158 167 220 236 273 288 265 277 284 278 285 267 274 283 275 264 284 271 270 284 276 265 5 16 351 354 332 309 316 307 329 296 252 266 276 273 276 281
199 194 185 188 196 177 183 212 221 239 257 267 279 284 288 281 255 267 260 258 265 266 295 279 277 284 285 311 29 299 324 313 297 314 333 333 303 282 275 283 286 283 270
204 200 182 203 193 177 205 215 222 217 244 290 299 298 285 276 311 251 223 261 269 286 286 285 283 293 302 341 321 275 297 297 293 263 313 295 301 297 287 289 278 282 276
213 199 197 191 198 205 160 156 157 239 270 272 283 283 272 286 6 38 8 354 274 254 268 248 255 226 262 246 260 267 274 337 322 283 344 289 291 292 290 293 282 275 281
181 189 180 204 207 195 189 194 212 213 248 269 265 260 273 99 62 45 4 352 329 331 321 219 248 250 256 242 210 275 284 258 251 273 3 296 291 292 284 296 304 296 295
174 180 209 218 207 245 201 213 226 261 290 285 294 278 115 93 73 46 3 340 332 326 1 354 305 281 258 270 226 207 242 275 290 285 212 288 291 294 297 299 293 291 285
172 184 194 204 223 239 311 156 152 275 294 3 22 94 116 133 154 78 44 351 333 323 332 335 326 307 293 283 236 104 292 288 295 261 280 228 262 290 275 293 309 351 328
176 179 211 208 214 193 175 161 168 207 340 140 111 115 160 161 154 103 66 339 326 303 323 325 328 323 311 297 285 195 235 245 257 296 240 198 256 318 313 262 278 299 276